Location: Unspecified
(0.0000°N, 0.0000°E)
Time: 08:38:50
(UTC+00:00)

Envisat - Pass Details

Date: 02 June 2020
Orbit: 764 x 766 km, 98.1° (Epoch: 06 July)

Event Time Altitude Azimuth Distance (km) Brightness Sun altitude
Rises 19:04:37 0° 204° (SSW) 3,230 6.3 -15.3°
Reaches altitude 10° 19:08:14 10° 230° (SW) 2,301 5.8 -16.2°
Maximum altitude 19:10:30 13° 257° (WSW) 2,093 6.0 -16.7°
Drops below altitude 10° 19:12:46 10° 284° (WNW) 2,297 6.7 -17.2°
Sets 19:16:23 0° 311° (NW) 3,220 7.6 -18.0°
